| time (UTC) | temp F | wind direction | speed MPH | gust MPH | rain 1hr in | rain 24hr in | rain mn in | humidity % | barometer mb |
| 20260905111329 | 74 | 269 | 8.0 | 12.0 | 0.00 | 0.00 | 0.00 | 24 | 1010.5 |
| 20260905110842 | 74 | 296 | 10.0 | 12.0 | 0.00 | 0.00 | 0.00 | 24 | 1010.5 |
| 20260905110353 | 74 | 299 | 10.0 | 13.0 | 0.00 | 0.00 | 0.00 | 24 | 1010.6 |
| 20260905105820 | 75 | 271 | 10.0 | 13.0 | 0.00 | 0.00 | 0.00 | 24 | 1010.5 |
| 20260905105331 | 74 | 290 | 10.0 | 14.0 | 0.00 | 0.00 | 0.00 | 24 | 1010.6 |
| 20260905104825 | 74 | 299 | 12.0 | 14.0 | 0.00 | 0.00 | 0.00 | 24 | 1010.5 |
| 20260905104316 | 74 | 290 | 9.0 | 12.0 | 0.00 | 0.00 | 0.00 | 24 | 1010.5 |
| 20260905103828 | 74 | 277 | 10.0 | 13.0 | 0.00 | 0.00 | 0.00 | 24 | 1010.5 |
| 20260905103319 | 75 | 272 | 11.0 | 14.0 | 0.00 | 0.00 | 0.00 | 24 | 1010.5 |
| 20260905102836 | 75 | 278 | 11.0 | 14.0 | 0.00 | 0.00 | 0.00 | 25 | 1010.5 |
| 20260905102326 | 74 | 277 | 12.0 | 14.0 | 0.00 | 0.00 | 0.00 | 25 | 1010.5 |
| 20260905101819 | 74 | 302 | 8.0 | 11.0 | 0.00 | 0.00 | 0.00 | 25 | 1010.6 |
| 20260905101350 | 74 | 304 | 9.0 | 12.0 | 0.00 | 0.00 | 0.00 | 25 | 1010.6 |
| 20260905100822 | 74 | 306 | 9.0 | 12.0 | 0.00 | 0.00 | 0.00 | 25 | 1010.6 |
| 20260905100313 | 75 | 308 | 8.0 | 12.0 | 0.00 | 0.00 | 0.00 | 25 | 1010.6 |
| 20260905095822 | 75 | 330 | 10.0 | 13.0 | 0.00 | 0.00 | 0.00 | 24 | 1010.6 |
| 20260905095314 | 75 | 312 | 11.0 | 14.0 | 0.00 | 0.00 | 0.00 | 24 | 1010.6 |
| 20260905094827 | 75 | 288 | 11.0 | 14.0 | 0.00 | 0.00 | 0.00 | 24 | 1010.6 |
| 20260905094317 | 75 | 279 | 10.0 | 15.0 | 0.00 | 0.00 | 0.00 | 24 | 1010.6 |
| 20260905093814 | 76 | 296 | 11.0 | 15.0 | 0.00 | 0.00 | 0.00 | 24 | 1010.5 |
| 20260905093326 | 76 | 277 | 13.0 | 16.0 | 0.00 | 0.00 | 0.00 | 24 | 1010.5 |
| 20260905092820 | 76 | 269 | 12.0 | 18.0 | 0.00 | 0.00 | 0.00 | 23 | 1010.5 |
| 20260905092352 | 77 | 252 | 14.0 | 18.0 | 0.00 | 0.00 | 0.00 | 23 | 1010.5 |
| 20260905091824 | 77 | 257 | 13.0 | 17.0 | 0.00 | 0.00 | 0.00 | 23 | 1010.5 |
| 20260905091317 | 77 | 254 | 13.0 | 18.0 | 0.00 | 0.00 | 0.00 | 23 | 1010.5 |
| 20260905090850 | 77 | 260 | 14.0 | 17.0 | 0.00 | 0.00 | 0.00 | 23 | 1010.5 |
| 20260905090321 | 77 | 261 | 11.0 | 14.0 | 0.00 | 0.00 | 0.00 | 22 | 1010.4 |
| 20260905085831 | 77 | 280 | 11.0 | 14.0 | 0.00 | 0.00 | 0.00 | 22 | 1010.5 |
| 20260905085322 | 78 | 269 | 11.0 | 15.0 | 0.00 | 0.00 | 0.00 | 21 | 1010.5 |
| 20260905084819 | 79 | 288 | 10.0 | 15.0 | 0.00 | 0.00 | 0.00 | 20 | 1010.6 |
| 20260905084330 | 79 | 279 | 11.0 | 14.0 | 0.00 | 0.00 | 0.00 | 20 | 1010.6 |
| 20260905083822 | 79 | 291 | 10.0 | 13.0 | 0.00 | 0.00 | 0.00 | 21 | 1010.6 |
| 20260905083313 | 79 | 299 | 10.0 | 13.0 | 0.00 | 0.00 | 0.00 | 21 | 1010.6 |
| 20260905082827 | 79 | 325 | 10.0 | 14.0 | 0.00 | 0.00 | 0.00 | 20 | 1010.7 |
| 20260905082317 | 79 | 304 | 11.0 | 14.0 | 0.00 | 0.00 | 0.00 | 21 | 1010.7 |
| 20260905081851 | 79 | 303 | 9.0 | 15.0 | 0.00 | 0.00 | 0.00 | 21 | 1010.7 |
| 20260905081320 | 79 | 310 | 12.0 | 17.0 | 0.00 | 0.00 | 0.00 | 21 | 1010.7 |
| 20260905080853 | 78 | 296 | 13.0 | 17.0 | 0.00 | 0.00 | 0.00 | 22 | 1010.7 |
| 20260905080322 | 78 | 288 | 11.0 | 13.0 | 0.00 | 0.00 | 0.00 | 22 | 1010.7 |
| 20260905075816 | 78 | 282 | 11.0 | 15.0 | 0.00 | 0.00 | 0.00 | 22 | 1010.7 |
| 20260905075327 | 79 | 302 | 10.0 | 15.0 | 0.00 | 0.00 | 0.00 | 23 | 1010.7 |
| 20260905074819 | 78 | 272 | 10.0 | 13.0 | 0.00 | 0.00 | 0.00 | 24 | 1010.8 |
| 20260905074330 | 78 | 300 | 10.0 | 12.0 | 0.00 | 0.00 | 0.00 | 24 | 1010.8 |
| 20260905073822 | 78 | 286 | 10.0 | 12.0 | 0.00 | 0.00 | 0.00 | 25 | 1010.7 |
| 20260905073313 | 78 | 302 | 9.0 | 11.0 | 0.00 | 0.00 | 0.00 | 25 | 1010.7 |
| 20260905072847 | 78 | 295 | 9.0 | 11.0 | 0.00 | 0.00 | 0.00 | 25 | 1010.8 |
| 20260905072316 | 78 | 284 | 8.0 | 10.0 | 0.00 | 0.00 | 0.00 | 25 | 1010.6 |
| 20260905071828 | 79 | 300 | 8.0 | 14.0 | 0.00 | 0.00 | 0.00 | 25 | 1010.6 |
| 20260905071323 | 79 | 287 | 11.0 | 16.0 | 0.00 | 0.00 | 0.00 | 25 | 1010.5 |
| 20260905070836 | 80 | 286 | 12.0 | 16.0 | 0.00 | 0.00 | 0.00 | 25 | 1010.4 |
| 20260905070347 | 80 | 285 | 11.0 | 14.0 | 0.00 | 0.00 | 0.00 | 25 | 1010.4 |
| 20260905065834 | 80 | 273 | 12.0 | 14.0 | 0.00 | 0.00 | 0.00 | 26 | 1010.4 |
| 20260905065324 | 80 | 294 | 9.0 | 16.0 | 0.00 | 0.00 | 0.00 | 27 | 1010.4 |
| 20260905064818 | 80 | 298 | 14.0 | 16.0 | 0.00 | 0.00 | 0.00 | 27 | 1010.3 |
| 20260905064330 | 80 | 288 | 6.0 | 16.0 | 0.00 | 0.00 | 0.00 | 28 | 1010.4 |
| 20260905063822 | 80 | 292 | 13.0 | 16.0 | 0.00 | 0.00 | 0.00 | 28 | 1010.3 |
| 20260905063332 | 80 | 298 | 8.0 | 13.0 | 0.00 | 0.00 | 0.00 | 28 | 1010.3 |
| 20260905062825 | 80 | 293 | 9.0 | 16.0 | 0.00 | 0.00 | 0.00 | 28 | 1010.3 |
| 20260905062316 | 81 | 303 | 12.0 | 16.0 | 0.00 | 0.00 | 0.00 | 28 | 1010.3 |
| 20260905061849 | 80 | 311 | 11.0 | 17.0 | 0.00 | 0.00 | 0.00 | 29 | 1010.4 |
| 20260905061323 | 81 | 279 | 14.0 | 17.0 | 0.00 | 0.00 | 0.00 | 29 | 1010.3 |
| 20260905060816 | 81 | 305 | 12.0 | 16.0 | 0.00 | 0.00 | 0.00 | 29 | 1010.2 |
| 20260905060327 | 81 | 278 | 11.0 | 24.0 | 0.00 | 0.00 | 0.00 | 29 | 1010.4 |
| 20260905055817 | 81 | 295 | 15.0 | 24.0 | 0.00 | 0.00 | 0.00 | 29 | 1010.3 |
| 20260905055348 | 81 | 296 | 16.0 | 23.0 | 0.00 | 0.00 | 0.00 | 30 | 1010.1 |
| 20260905054819 | 80 | 312 | 13.0 | 24.0 | 0.00 | 0.00 | 0.00 | 30 | 1010.2 |
| 20260905054330 | 81 | 276 | 14.0 | 24.0 | 0.00 | 0.00 | 0.00 | 30 | 1010.1 |
| 20260905053843 | 80 | 290 | 16.0 | 20.0 | 0.00 | 0.00 | 0.00 | 30 | 1010.1 |
| 20260905053313 | 80 | 309 | 15.0 | 21.0 | 0.00 | 0.00 | 0.00 | 30 | 1010.1 |
| 20260905052830 | 80 | 284 | 16.0 | 21.0 | 0.00 | 0.00 | 0.00 | 30 | 1010.3 |
| 20260905052321 | 80 | 275 | 13.0 | 19.0 | 0.00 | 0.00 | 0.00 | 31 | 1010.3 |
| 20260905051814 | 81 | 281 | 15.0 | 22.0 | 0.00 | 0.00 | 0.00 | 31 | 1010.3 |
| 20260905051346 | 81 | 286 | 17.0 | 22.0 | 0.00 | 0.00 | 0.00 | 31 | 1010.2 |
| 20260905050818 | 81 | 300 | 14.0 | 20.0 | 0.00 | 0.00 | 0.00 | 31 | 1010.2 |
| 20260905050330 | 81 | 296 | 15.0 | 22.0 | 0.00 | 0.00 | 0.00 | 31 | 1010.3 |
| 20260905045819 | 81 | 300 | 16.0 | 22.0 | 0.00 | 0.00 | 0.00 | 31 | 1010.4 |
| 20260905045330 | 81 | 306 | 12.0 | 19.0 | 0.00 | 0.00 | 0.00 | 31 | 1010.4 |
| 20260905044824 | 81 | 290 | 14.0 | 19.0 | 0.00 | 0.00 | 0.00 | 30 | 1010.4 |
| 20260905044319 | 81 | 300 | 14.0 | 18.0 | 0.00 | 0.00 | 0.00 | 30 | 1010.4 |
| 20260905043832 | 81 | 297 | 14.0 | 20.0 | 0.00 | 0.00 | 0.00 | 29 | 1010.2 |
| 20260905043323 | 81 | 298 | 13.0 | 21.0 | 0.00 | 0.00 | 0.00 | 29 | 1010.1 |
| 20260905042815 | 81 | 291 | 14.0 | 23.0 | 0.00 | 0.00 | 0.00 | 29 | 1010.1 |
| 20260905042326 | 81 | 318 | 16.0 | 24.0 | 0.00 | 0.00 | 0.00 | 28 | 1010.0 |
| 20260905041818 | 81 | 307 | 17.0 | 24.0 | 0.00 | 0.00 | 0.00 | 28 | 1010.0 |
| 20260905041328 | 82 | 298 | 13.0 | 21.0 | 0.00 | 0.00 | 0.00 | 26 | 1010.0 |
| 20260905040821 | 82 | 318 | 15.0 | 21.0 | 0.00 | 0.00 | 0.00 | 26 | 1009.9 |
| 20260905040331 | 82 | 296 | 16.0 | 22.0 | 0.00 | 0.00 | 0.00 | 26 | 1009.9 |
| 20260905035820 | 82 | 288 | 17.0 | 23.0 | 0.00 | 0.00 | 0.00 | 24 | 1009.8 |
| 20260905035316 | 82 | 320 | 15.0 | 22.0 | 0.00 | 0.00 | 0.00 | 24 | 1009.8 |
| 20260905034848 | 83 | 295 | 18.0 | 28.0 | 0.00 | 0.00 | 0.00 | 24 | 1009.7 |
| 20260905034317 | 83 | 283 | 20.0 | 28.0 | 0.00 | 0.00 | 0.00 | 24 | 1009.6 |
| 20260905033829 | 83 | 296 | 17.0 | 26.0 | 0.00 | 0.00 | 0.00 | 23 | 1009.5 |
| 20260905033319 | 83 | 296 | 20.0 | 27.0 | 0.00 | 0.00 | 0.00 | 23 | 1009.3 |
| 20260905032831 | 83 | 301 | 19.0 | 28.0 | 0.00 | 0.00 | 0.00 | 23 | 1009.4 |
| 20260905032323 | 83 | 266 | 23.0 | 28.0 | 0.00 | 0.00 | 0.00 | 23 | 1009.2 |
| 20260905031817 | 84 | 298 | 18.0 | 29.0 | 0.00 | 0.00 | 0.00 | 22 | 1009.1 |
| 20260905031330 | 84 | 259 | 21.0 | 29.0 | 0.00 | 0.00 | 0.00 | 22 | 1009.0 |
| 20260905030827 | 84 | 272 | 20.0 | 27.0 | 0.00 | 0.00 | 0.00 | 21 | 1008.9 |
| 20260905030320 | 85 | 261 | 16.0 | 27.0 | 0.00 | 0.00 | 0.00 | 21 | 1008.8 |
| 20260905025829 | 85 | 269 | 19.0 | 26.0 | 0.00 | 0.00 | 0.00 | 21 | 1008.8 |
| 20260905025321 | 85 | 262 | 18.0 | 25.0 | 0.00 | 0.00 | 0.00 | 20 | 1008.8 |
| 20260905024854 | 86 | 284 | 19.0 | 26.0 | 0.00 | 0.00 | 0.00 | 20 | 1008.6 |
| 20260905024323 | 86 | 270 | 18.0 | 23.0 | 0.00 | 0.00 | 0.00 | 20 | 1008.7 |
| 20260905023816 | 86 | 265 | 12.0 | 18.0 | 0.00 | 0.00 | 0.00 | 19 | 1008.7 |
| 20260905023347 | 87 | 285 | 15.0 | 18.0 | 0.00 | 0.00 | 0.00 | 19 | 1008.6 |
| 20260905022840 | 87 | 273 | 13.0 | 19.0 | 0.00 | 0.00 | 0.00 | 19 | 1008.6 |
| 20260905022330 | 87 | 283 | 14.0 | 20.0 | 0.00 | 0.00 | 0.00 | 19 | 1008.6 |
| 20260905021822 | 87 | 283 | 15.0 | 20.0 | 0.00 | 0.00 | 0.00 | 18 | 1008.5 |
| 20260905021317 | 88 | 288 | 16.0 | 20.0 | 0.00 | 0.00 | 0.00 | 18 | 1008.5 |
| 20260905020830 | 88 | 296 | 15.0 | 20.0 | 0.00 | 0.00 | 0.00 | 17 | 1008.4 |
| 20260905020321 | 89 | 302 | 15.0 | 23.0 | 0.00 | 0.00 | 0.00 | 17 | 1008.4 |
| 20260905015829 | 89 | 281 | 15.0 | 23.0 | 0.00 | 0.00 | 0.00 | 17 | 1008.3 |
| 20260905015320 | 90 | 275 | 16.0 | 21.0 | 0.00 | 0.00 | 0.00 | 17 | 1008.3 |
| 20260905014813 | 90 | 294 | 13.0 | 23.0 | 0.00 | 0.00 | 0.00 | 17 | 1008.2 |
| 20260905014325 | 90 | 259 | 17.0 | 23.0 | 0.00 | 0.00 | 0.00 | 16 | 1008.2 |
| 20260905013818 | 91 | 316 | 15.0 | 26.0 | 0.00 | 0.00 | 0.00 | 16 | 1008.2 |
| 20260905013328 | 91 | 265 | 18.0 | 26.0 | 0.00 | 0.00 | 0.00 | 16 | 1008.1 |
| 20260905012822 | 91 | 251 | 18.0 | 26.0 | 0.00 | 0.00 | 0.00 | 16 | 1008.1 |
| 20260905012317 | 91 | 268 | 21.0 | 27.0 | 0.00 | 0.00 | 0.00 | 15 | 1008.2 |
| 20260905011831 | 92 | 255 | 17.0 | 29.0 | 0.00 | 0.00 | 0.00 | 15 | 1008.2 |
| 20260905011323 | 92 | 259 | 22.0 | 29.0 | 0.00 | 0.00 | 0.00 | 15 | 1008.1 |
| 20260905010836 | 92 | 268 | 21.0 | 28.0 | 0.00 | 0.00 | 0.00 | 15 | 1008.2 |
| 20260905010328 | 92 | 262 | 18.0 | 26.0 | 0.00 | 0.00 | 0.00 | 15 | 1008.2 |
| 20260905005836 | 93 | 264 | 21.0 | 26.0 | 0.00 | 0.00 | 0.00 | 15 | 1008.2 |
| 20260905005327 | 93 | 246 | 20.0 | 26.0 | 0.00 | 0.00 | 0.00 | 15 | 1008.1 |
| 20260905004839 | 93 | 255 | 21.0 | 27.0 | 0.00 | 0.00 | 0.00 | 15 | 1008.1 |
| 20260905004329 | 94 | 271 | 17.0 | 24.0 | 0.00 | 0.00 | 0.00 | 14 | 1008.1 |
| 20260905003821 | 94 | 267 | 16.0 | 20.0 | 0.00 | 0.00 | 0.00 | 14 | 1008.2 |
| 20260905003316 | 95 | 265 | 14.0 | 19.0 | 0.00 | 0.00 | 0.00 | 14 | 1008.2 |
| 20260905002827 | 95 | 246 | 15.0 | 19.0 | 0.00 | 0.00 | 0.00 | 14 | 1008.2 |
| 20260905002318 | 94 | 297 | 13.0 | 18.0 | 0.00 | 0.00 | 0.00 | 14 | 1008.2 |
| 20260905001851 | 94 | 258 | 12.0 | 18.0 | 0.00 | 0.00 | 0.00 | 14 | 1008.1 |
| 20260905001323 | 94 | 256 | 15.0 | 18.0 | 0.00 | 0.00 | 0.00 | 14 | 1008.1 |
| 20260905000836 | 94 | 295 | 10.0 | 19.0 | 0.00 | 0.00 | 0.00 | 14 | 1008.2 |
| 20260905000325 | 95 | 348 | 16.0 | 19.0 | 0.00 | 0.00 | 0.00 | 13 | 1008.2 |
| 20260904235814 | 95 | 236 | 8.0 | 16.0 | 0.00 | 0.00 | 0.00 | 14 | 1008.2 |
| 20260904235345 | 95 | 278 | 10.0 | 15.0 | 0.00 | 0.00 | 0.00 | 14 | 1008.3 |
| 20260904234816 | 95 | 264 | 8.0 | 14.0 | 0.00 | 0.00 | 0.00 | 14 | 1008.2 |
| 20260904234331 | 95 | 257 | 11.0 | 17.0 | 0.00 | 0.00 | 0.00 | 14 | 1008.3 |
| 20260904233824 | 95 | 255 | 14.0 | 18.0 | 0.00 | 0.00 | 0.00 | 14 | 1008.3 |
| 20260904233316 | 96 | 232 | 13.0 | 18.0 | 0.00 | 0.00 | 0.00 | 13 | 1008.3 |
| 20260904232829 | 95 | 242 | 11.0 | 19.0 | 0.00 | 0.00 | 0.00 | 14 | 1008.2 |
| 20260904232321 | 95 | 274 | 11.0 | 19.0 | 0.00 | 0.00 | 0.00 | 14 | 1008.2 |
| 20260904231814 | 96 | 303 | 9.0 | 17.0 | 0.00 | 0.00 | 0.00 | 14 | 1008.2 |
| 20260904231326 | 96 | 246 | 10.0 | 17.0 | 0.00 | 0.00 | 0.00 | 14 | 1008.3 |
| 20260904230818 | 95 | 337 | 10.0 | 13.0 | 0.00 | 0.00 | 0.00 | 14 | 1008.3 |
| 20260904230313 | 95 | 257 | 7.0 | 13.0 | 0.00 | 0.00 | 0.00 | 14 | 1008.4 |
| 20260904225822 | 95 | 317 | 5.0 | 9.0 | 0.00 | 0.00 | 0.00 | 15 | 1008.4 |
| 20260904225314 | 95 | 239 | 2.0 | 13.0 | 0.00 | 0.00 | 0.00 | 15 | 1008.5 |
| 20260904224827 | 95 | 315 | 9.0 | 13.0 | 0.00 | 0.00 | 0.00 | 15 | 1008.5 |
| 20260904224337 | 95 | 329 | 5.0 | 10.0 | 0.00 | 0.00 | 0.00 | 15 | 1008.5 |
| 20260904223827 | 95 | 194 | 6.0 | 10.0 | 0.00 | 0.00 | 0.00 | 16 | 1008.6 |
| 20260904223317 | 95 | 296 | 5.0 | 14.0 | 0.00 | 0.00 | 0.00 | 15 | 1008.6 |
| 20260904222830 | 96 | 265 | 9.0 | 13.0 | 0.00 | 0.00 | 0.00 | 15 | 1008.7 |
| 20260904222321 | 96 | 180 | 5.0 | 12.0 | 0.00 | 0.00 | 0.00 | 16 | 1008.7 |
| 20260904221814 | 95 | 252 | 9.0 | 12.0 | 0.00 | 0.00 | 0.00 | 15 | 1008.7 |
| 20260904221326 | 96 | 208 | 7.0 | 9.0 | 0.00 | 0.00 | 0.00 | 15 | 1008.8 |
| 20260904220842 | 96 | 118 | 4.0 | 9.0 | 0.00 | 0.00 | 0.00 | 14 | 1008.8 |
| 20260904220313 | 96 | 20 | 1.0 | 8.0 | 0.00 | 0.00 | 0.00 | 14 | 1008.8 |
| 20260904215823 | 96 | 221 | 2.0 | 9.0 | 0.00 | 0.00 | 0.00 | 14 | 1008.8 |
| 20260904215313 | 95 | 207 | 7.0 | 8.0 | 0.00 | 0.00 | 0.00 | 14 | 1008.9 |
| 20260904214846 | 95 | 96 | 3.0 | 10.0 | 0.00 | 0.00 | 0.00 | 14 | 1009.0 |
| 20260904214317 | 96 | 132 | 3.0 | 7.0 | 0.00 | 0.00 | 0.00 | 14 | 1009.0 |
| 20260904213830 | 96 | 93 | 2.0 | 9.0 | 0.00 | 0.00 | 0.00 | 14 | 1009.2 |
| 20260904213321 | 95 | 145 | 6.0 | 9.0 | 0.00 | 0.00 | 0.00 | 14 | 1009.2 |
| 20260904212813 | 95 | 149 | 5.0 | 9.0 | 0.00 | 0.00 | 0.00 | 14 | 1009.2 |
| 20260904212328 | 95 | 128 | 5.0 | 10.0 | 0.00 | 0.00 | 0.00 | 14 | 1009.2 |
| 20260904211821 | 96 | 163 | 5.0 | 9.0 | 0.00 | 0.00 | 0.00 | 14 | 1009.2 |
| 20260904211332 | 95 | 169 | 6.0 | 10.0 | 0.00 | 0.00 | 0.00 | 15 | 1009.2 |
| 20260904210826 | 95 | 159 | 4.0 | 10.0 | 0.00 | 0.00 | 0.00 | 15 | 1009.2 |
| 20260904210317 | 94 | 149 | 5.0 | 8.0 | 0.00 | 0.00 | 0.00 | 15 | 1009.2 |
| 20260904205827 | 94 | 229 | 4.0 | 12.0 | 0.00 | 0.00 | 0.00 | 15 | 1009.4 |
| 20260904205319 | 94 | 263 | 8.0 | 10.0 | 0.00 | 0.00 | 0.00 | 15 | 1009.4 |
| 20260904204832 | 94 | 248 | 3.0 | 8.0 | 0.00 | 0.00 | 0.00 | 15 | 1009.5 |
| 20260904204327 | 93 | 185 | 3.0 | 6.0 | 0.00 | 0.00 | 0.00 | 16 | 1009.4 |
| 20260904203820 | 93 | 38 | 3.0 | 10.0 | 0.00 | 0.00 | 0.00 | 15 | 1009.4 |
| 20260904203332 | 94 | 186 | 3.0 | 10.0 | 0.00 | 0.00 | 0.00 | 15 | 1009.5 |
| 20260904202825 | 94 | 84 | 4.0 | 11.0 | 0.00 | 0.00 | 0.00 | 15 | 1009.5 |
| 20260904202317 | 94 | 139 | 8.0 | 11.0 | 0.00 | 0.00 | 0.00 | 16 | 1009.5 |
| 20260904201830 | 93 | 185 | 5.0 | 7.0 | 0.00 | 0.00 | 0.00 | 17 | 1009.5 |
| 20260904201321 | 93 | 152 | 2.0 | 7.0 | 0.00 | 0.00 | 0.00 | 16 | 1009.6 |
| 20260904200814 | 93 | 172 | 5.0 | 9.0 | 0.00 | 0.00 | 0.00 | 17 | 1009.7 |
| 20260904200345 | 92 | 234 | 2.0 | 8.0 | 0.00 | 0.00 | 0.00 | 17 | 1009.7 |
| 20260904195820 | 92 | 196 | 5.0 | 10.0 | 0.00 | 0.00 | 0.00 | 17 | 1009.8 |
| 20260904195331 | 92 | 128 | 5.0 | 10.0 | 0.00 | 0.00 | 0.00 | 18 | 1009.9 |
| 20260904194824 | 92 | 132 | 4.0 | 10.0 | 0.00 | 0.00 | 0.00 | 18 | 1010.0 |
| 20260904194316 | 91 | 5 | 3.0 | 11.0 | 0.00 | 0.00 | 0.00 | 17 | 1010.0 |
| 20260904193828 | 91 | 213 | 6.0 | 10.0 | 0.00 | 0.00 | 0.00 | 17 | 1010.0 |
| 20260904193319 | 91 | 232 | 4.0 | 10.0 | 0.00 | 0.00 | 0.00 | 17 | 1010.1 |
| 20260904192813 | 91 | 228 | 4.0 | 8.0 | 0.00 | 0.00 | 0.00 | 17 | 1010.2 |
| 20260904192326 | 91 | 224 | 6.0 | 9.0 | 0.00 | 0.00 | 0.00 | 17 | 1010.3 |
| 20260904191824 | 91 | 330 | 1.0 | 9.0 | 0.00 | 0.00 | 0.00 | 18 | 1010.4 |
| 20260904191316 | 91 | 161 | 4.0 | 6.0 | 0.00 | 0.00 | 0.00 | 18 | 1010.5 |
| 20260904190829 | 91 | 111 | 3.0 | 8.0 | 0.00 | 0.00 | 0.00 | 18 | 1010.5 |
| 20260904190320 | 90 | 146 | 5.0 | 9.0 | 0.00 | 0.00 | 0.00 | 18 | 1010.6 |
| 20260904185828 | 90 | 197 | 3.0 | 8.0 | 0.00 | 0.00 | 0.00 | 19 | 1010.7 |
| 20260904185319 | 90 | 205 | 6.0 | 8.0 | 0.00 | 0.00 | 0.00 | 19 | 1010.7 |
| 20260904184853 | 90 | 196 | 3.0 | 8.0 | 0.00 | 0.00 | 0.00 | 20 | 1010.7 |
| 20260904184323 | 90 | 290 | 3.0 | 9.0 | 0.00 | 0.00 | 0.00 | 19 | 1010.8 |
| 20260904183838 | 90 | 162 | 5.0 | 11.0 | 0.00 | 0.00 | 0.00 | 21 | 1010.8 |
| 20260904183329 | 90 | 260 | 5.0 | 11.0 | 0.00 | 0.00 | 0.00 | 20 | 1010.8 |
| 20260904182825 | 89 | 191 | 4.0 | 10.0 | 0.00 | 0.00 | 0.00 | 20 | 1010.8 |
| 20260904182336 | 89 | 190 | 4.0 | 10.0 | 0.00 | 0.00 | 0.00 | 20 | 1010.8 |
| 20260904181828 | 89 | 211 | 2.0 | 8.0 | 0.00 | 0.00 | 0.00 | 20 | 1010.9 |
| 20260904181341 | 89 | 187 | 5.0 | 9.0 | 0.00 | 0.00 | 0.00 | 20 | 1010.9 |
| 20260904180813 | 89 | 192 | 5.0 | 10.0 | 0.00 | 0.00 | 0.00 | 21 | 1010.9 |
| 20260904180324 | 89 | 194 | 6.0 | 11.0 | 0.00 | 0.00 | 0.00 | 20 | 1011.0 |
| 20260904175834 | 88 | 198 | 6.0 | 11.0 | 0.00 | 0.00 | 0.00 | 21 | 1010.9 |
| 20260904175325 | 87 | 211 | 2.0 | 8.0 | 0.00 | 0.00 | 0.00 | 20 | 1010.9 |
| 20260904174818 | 87 | 326 | 5.0 | 9.0 | 0.00 | 0.00 | 0.00 | 20 | 1010.9 |
| 20260904174329 | 87 | 250 | 4.0 | 9.0 | 0.00 | 0.00 | 0.00 | 20 | 1010.9 |
| 20260904173821 | 86 | 265 | 7.0 | 9.0 | 0.00 | 0.00 | 0.00 | 20 | 1010.9 |
| 20260904173316 | 86 | 241 | 6.0 | 9.0 | 0.00 | 0.00 | 0.00 | 20 | 1010.9 |
| 20260904172830 | 86 | 218 | 7.0 | 9.0 | 0.00 | 0.00 | 0.00 | 20 | 1010.9 |
| 20260904172342 | 86 | 230 | 7.0 | 10.0 | 0.00 | 0.00 | 0.00 | 21 | 1010.9 |
| 20260904171832 | 86 | 227 | 5.0 | 9.0 | 0.00 | 0.00 | 0.00 | 19 | 1010.9 |
| 20260904171343 | 86 | 239 | 6.0 | 9.0 | 0.00 | 0.00 | 0.00 | 20 | 1010.9 |
| 20260904170834 | 85 | 251 | 4.0 | 11.0 | 0.00 | 0.00 | 0.00 | 20 | 1010.9 |
| 20260904170325 | 85 | 293 | 8.0 | 11.0 | 0.00 | 0.00 | 0.00 | 19 | 1010.9 |
| 20260904165814 | 85 | 298 | 4.0 | 12.0 | 0.00 | 0.00 | 0.00 | 20 | 1010.9 |
| 20260904165326 | 85 | 250 | 5.0 | 12.0 | 0.00 | 0.00 | 0.00 | 20 | 1010.9 |
| 20260904164820 | 84 | 287 | 8.0 | 11.0 | 0.00 | 0.00 | 0.00 | 20 | 1010.9 |
| 20260904164315 | 84 | 298 | 6.0 | 11.0 | 0.00 | 0.00 | 0.00 | 20 | 1010.9 |
| 20260904163828 | 84 | 293 | 8.0 | 11.0 | 0.00 | 0.00 | 0.00 | 20 | 1010.8 |
| 20260904163319 | 83 | 267 | 8.0 | 13.0 | 0.00 | 0.00 | 0.00 | 21 | 1010.8 |
| 20260904162832 | 83 | 280 | 9.0 | 13.0 | 0.00 | 0.00 | 0.00 | 21 | 1010.7 |
| 20260904162324 | 83 | 311 | 9.0 | 14.0 | 0.00 | 0.00 | 0.00 | 21 | 1010.6 |
| 20260904161818 | 82 | 275 | 11.0 | 15.0 | 0.00 | 0.00 | 0.00 | 21 | 1010.5 |
| 20260904161349 | 82 | 310 | 11.0 | 15.0 | 0.00 | 0.00 | 0.00 | 22 | 1010.5 |
| 20260904160821 | 82 | 316 | 12.0 | 15.0 | 0.00 | 0.00 | 0.00 | 22 | 1010.4 |
| 20260904160333 | 81 | 302 | 10.0 | 16.0 | 0.00 | 0.00 | 0.00 | 22 | 1010.4 |
| 20260904155826 | 81 | 288 | 12.0 | 16.0 | 0.00 | 0.00 | 0.00 | 22 | 1010.4 |
| 20260904155317 | 81 | 298 | 12.0 | 16.0 | 0.00 | 0.00 | 0.00 | 22 | 1010.3 |
| 20260904154831 | 80 | 272 | 12.0 | 18.0 | 0.00 | 0.00 | 0.00 | 22 | 1010.3 |
| 20260904154322 | 80 | 280 | 15.0 | 18.0 | 0.00 | 0.00 | 0.00 | 23 | 1010.3 |
| 20260904153816 | 80 | 279 | 13.0 | 19.0 | 0.00 | 0.00 | 0.00 | 23 | 1010.1 |
| 20260904153328 | 80 | 271 | 14.0 | 19.0 | 0.00 | 0.00 | 0.00 | 23 | 1010.2 |
| 20260904152820 | 79 | 266 | 14.0 | 18.0 | 0.00 | 0.00 | 0.00 | 22 | 1010.2 |
| 20260904152312 | 79 | 279 | 13.0 | 20.0 | 0.00 | 0.00 | 0.00 | 21 | 1010.1 |
| 20260904151830 | 79 | 273 | 16.0 | 20.0 | 0.00 | 0.00 | 0.00 | 21 | 1010.1 |
| 20260904151323 | 79 | 244 | 15.0 | 19.0 | 0.00 | 0.00 | 0.00 | 20 | 1010.1 |
| 20260904150817 | 79 | 277 | 13.0 | 17.0 | 0.00 | 0.00 | 0.00 | 21 | 1010.0 |
| 20260904150329 | 78 | 290 | 13.0 | 17.0 | 0.00 | 0.00 | 0.00 | 21 | 1010.1 |
| 20260904145816 | 78 | 253 | 14.0 | 19.0 | 0.00 | 0.00 | 0.00 | 22 | 1010.0 |
| 20260904145347 | 77 | 267 | 13.0 | 19.0 | 0.00 | 0.00 | 0.00 | 23 | 1009.9 |
| 20260904144819 | 77 | 252 | 14.0 | 19.0 | 0.00 | 0.00 | 0.00 | 24 | 1009.8 |
| 20260904144331 | 76 | 255 | 13.0 | 19.0 | 0.00 | 0.00 | 0.00 | 24 | 1009.8 |
| 20260904143825 | 76 | 282 | 11.0 | 18.0 | 0.00 | 0.00 | 0.00 | 25 | 1009.8 |
| 20260904143322 | 76 | 283 | 13.0 | 19.0 | 0.00 | 0.00 | 0.00 | 25 | 1009.8 |
| 20260904142816 | 76 | 284 | 15.0 | 19.0 | 0.00 | 0.00 | 0.00 | 23 | 1009.6 |
| 20260904142348 | 76 | 277 | 13.0 | 17.0 | 0.00 | 0.00 | 0.00 | 24 | 1009.6 |
| 20260904141821 | 76 | 284 | 11.0 | 15.0 | 0.00 | 0.00 | 0.00 | 24 | 1009.5 |
| 20260904141314 | 75 | 282 | 11.0 | 16.0 | 0.00 | 0.00 | 0.00 | 24 | 1009.4 |
| 20260904140828 | 75 | 273 | 12.0 | 16.0 | 0.00 | 0.00 | 0.00 | 24 | 1009.3 |
| 20260904140319 | 74 | 298 | 11.0 | 14.0 | 0.00 | 0.00 | 0.00 | 25 | 1009.2 |
| 20260904135828 | 74 | 301 | 11.0 | 15.0 | 0.00 | 0.00 | 0.00 | 25 | 1009.2 |
| 20260904135319 | 74 | 279 | 12.0 | 16.0 | 0.00 | 0.00 | 0.00 | 25 | 1009.1 |
| 20260904134817 | 74 | 275 | 12.0 | 15.0 | 0.00 | 0.00 | 0.00 | 25 | 1009.0 |
| 20260904134328 | 74 | 277 | 10.0 | 15.0 | 0.00 | 0.00 | 0.00 | 25 | 1008.9 |
| 20260904133820 | 74 | 280 | 11.0 | 15.0 | 0.00 | 0.00 | 0.00 | 25 | 1008.9 |
| 20260904133331 | 74 | 291 | 12.0 | 15.0 | 0.00 | 0.00 | 0.00 | 25 | 1008.9 |
| 20260904132825 | 74 | 290 | 12.0 | 15.0 | 0.00 | 0.00 | 0.00 | 25 | 1008.8 |
| 20260904132336 | 74 | 296 | 11.0 | 18.0 | 0.00 | 0.00 | 0.00 | 24 | 1008.8 |
| 20260904131827 | 74 | 308 | 13.0 | 18.0 | 0.00 | 0.00 | 0.00 | 24 | 1008.7 |
| 20260904131319 | 75 | 292 | 13.0 | 18.0 | 0.00 | 0.00 | 0.00 | 23 | 1008.6 |
| 20260904130832 | 75 | 312 | 15.0 | 18.0 | 0.00 | 0.00 | 0.00 | 22 | 1008.5 |
| 20260904130327 | 75 | 302 | 13.0 | 18.0 | 0.00 | 0.00 | 0.00 | 22 | 1008.6 |
| 20260904125816 | 75 | 294 | 14.0 | 18.0 | 0.00 | 0.00 | 0.00 | 22 | 1008.5 |
| 20260904125327 | 75 | 295 | 12.0 | 16.0 | 0.00 | 0.00 | 0.00 | 22 | 1008.4 |
| 20260904124818 | 75 | 299 | 13.0 | 19.0 | 0.00 | 0.00 | 0.00 | 22 | 1008.4 |
| 20260904124327 | 76 | 302 | 14.0 | 19.0 | 0.00 | 0.00 | 0.00 | 22 | 1008.4 |
| 20260904123819 | 76 | 299 | 13.0 | 21.0 | 0.00 | 0.00 | 0.00 | 22 | 1008.4 |
| 20260904123331 | 76 | 291 | 16.0 | 21.0 | 0.00 | 0.00 | 0.00 | 22 | 1008.4 |
| 20260904122843 | 76 | 300 | 15.0 | 21.0 | 0.00 | 0.00 | 0.00 | 22 | 1008.4 |
| 20260904122313 | 76 | 306 | 15.0 | 23.0 | 0.00 | 0.00 | 0.00 | 23 | 1008.4 |
| 20260904121848 | 75 | 314 | 15.0 | 20.0 | 0.00 | 0.00 | 0.00 | 24 | 1008.3 |
| 20260904121318 | 75 | 302 | 11.0 | 16.0 | 0.00 | 0.00 | 0.00 | 25 | 1008.4 |
| 20260904120815 | 75 | 314 | 12.0 | 17.0 | 0.00 | 0.00 | 0.00 | 25 | 1008.4 |
| 20260904120326 | 75 | 304 | 13.0 | 16.0 | 0.00 | 0.00 | 0.00 | 25 | 1008.4 |
| 20260904115815 | 76 | 310 | 13.0 | 19.0 | 0.00 | 0.00 | 0.00 | 26 | 1008.4 |
| 20260904115325 | 76 | 281 | 14.0 | 19.0 | 0.00 | 0.00 | 0.00 | 26 | 1008.4 |
| 20260904114837 | 76 | 295 | 13.0 | 26.0 | 0.00 | 0.00 | 0.00 | 25 | 1008.5 |
| 20260904114347 | 76 | 291 | 16.0 | 26.0 | 0.00 | 0.00 | 0.00 | 25 | 1008.4 |
| 20260904113839 | 76 | 278 | 15.0 | 24.0 | 0.00 | 0.00 | 0.00 | 26 | 1008.4 |
| 20260904113329 | 76 | 265 | 15.0 | 27.0 | 0.00 | 0.00 | 0.00 | 26 | 1008.5 |
| 20260904112820 | 77 | 264 | 16.0 | 27.0 | 0.00 | 0.00 | 0.00 | 25 | 1008.4 |
| 20260904112331 | 77 | 279 | 17.0 | 28.0 | 0.00 | 0.00 | 0.00 | 24 | 1008.4 |
| 20260904111844 | 77 | 273 | 20.0 | 28.0 | 0.00 | 0.00 | 0.00 | 23 | 1008.4 |